Location: Macksville High School
(37.9611°N, 99.9654°W)
Time: 19:18:09
(UTC+00:00)

Cosmos 2219 Rocket - Pass Details

Date: 17 January 2021
Orbit: 828 x 846 km, 71.0° (Epoch: 26 February)

Event Time Altitude Azimuth Distance (km) Brightness Sun altitude
Rises 12:58:49 0° 235° (SW) 3,363 5.0 -10.9°
Reaches altitude 10° 13:01:41 10° 249° (WSW) 2,431 4.1 -10.3°
Maximum altitude 13:06:11 25° 303° (WNW) 1,634 3.1 -9.5°
Drops below altitude 10° 13:10:41 10° 357° (N) 2,439 4.4 -8.7°
Sets 13:13:36 0° 11° (N) 3,376 5.2 -8.1°
